Location: Baili�vre
(50.0696°N, 4.2409°E)
Time: 21:42:00
(UTC+00:00)

Cosmos 1486 Rocket - Pass Details

Date: 08 August 2020
Orbit: 758 x 783 km, 74.1° (Epoch: 22 September)

Event Time Altitude Azimuth Distance (km) Brightness Sun altitude
Exits shadow 23:52:07 63° 224° (SW) 853 3.9 -24.1°
Maximum altitude 23:52:58 80° 294° (WNW) 778 3.9 -24.1°
Drops below altitude 10° 23:58:11 10° 22° (NNE) 2,301 7.4 -24.1°
Sets 00:00:34 0° 24° (NNE) 3,230 8.4 -24.1°
